Location: Barcelona
(41.3830°N, 2.1830°E)
Time: 00:59:17
(UTC+02:00)

ISS - Pass Details

Date: 12 July 2019
Orbit: 409 x 418 km, 51.6° (Epoch: 23 July)

Event Time Altitude Azimuth Distance (km) Brightness Sun altitude
Exits shadow 01:38:57 13° 49° (NE) 1,316 -0.9 -26.4°
Drops below altitude 10° 01:39:22 10° 50° (NE) 1,481 -0.6 -26.5°
Sets 01:41:28 0° 53° (NE) 2,344 0.5 -26.5°
